Location: CCZU
(31.6840°N, 119.9550°E)
Time: 09:14:31
(UTC+08:00)

Tiangong 2 - Pass Details

Date: 01 May 2019
Orbit: 379 x 387 km, 42.8° (Epoch: 21 May)

Event Time Altitude Azimuth Distance (km) Brightness Sun altitude
Exits shadow 04:21:33 16° 215° (SW) 1,093 2.8 -11.5°
Maximum altitude 04:23:49 48° 144° (SE) 511 1.7 -11.1°
Drops below altitude 10° 04:26:53 10° 69° (ENE) 1,404 5.5 -10.5°
Sets 04:29:00 0° 63° (ENE) 2,261 7.3 -10.1°
